Retour au catalogue

SL-12 DEB

LostHEO
NORAD 26802·DEBRIS·🇷🇺 Russia

Lancé Dec 24, 1985 depuis Baikonur Cosmodrome

Loading…

Prochains Passages (prochaines 24 heures)

TLE

PériméSource: Space-Track

Époque: Feb 17, 2003, 17:48 UTC

1 26802U 85118Z   03048.74181884 +.00000000 +00000-0 +10000-3 0  9991
2 26802 064.8211 166.9492 4729507 351.4123 001.2704 05.61322920038265

Suivez SL-12 DEB en temps réel avec AllMySat

Download on the App Store